Year,Month,Day,Hour,Minute,Value (Times are PST for temperature in C)
2010,07,09,09,08,25.10
2010,07,09,09,09,25.10
2010,07,09,09,10,25.00
2010,07,09,09,11,25.00
2010,07,09,09,12,24.90
2010,07,09,09,13,24.90
2010,07,09,09,14,24.90
2010,07,09,09,15,24.90
2010,07,09,09,16,24.90
2010,07,09,09,17,24.90
2010,07,09,09,18,25.00
2010,07,09,09,19,25.00
2010,07,09,09,20,25.00
2010,07,09,09,21,25.00
2010,07,09,09,22,25.10
2010,07,09,09,23,25.10
2010,07,09,09,24,25.10
2010,07,09,09,25,25.10
2010,07,09,09,26,25.10
2010,07,09,09,27,25.00
2010,07,09,09,28,25.00
2010,07,09,09,29,25.00
2010,07,09,09,30,25.00
2010,07,09,09,31,24.90
2010,07,09,09,32,25.00
2010,07,09,09,33,25.00
2010,07,09,09,34,25.00
2010,07,09,09,35,25.00
2010,07,09,09,36,25.10
2010,07,09,09,37,25.10
2010,07,09,09,38,25.10
2010,07,09,09,39,25.10
2010,07,09,09,40,25.10
2010,07,09,09,41,25.20
2010,07,09,09,42,25.20
2010,07,09,09,43,25.30
2010,07,09,09,44,25.30
2010,07,09,09,45,25.30
2010,07,09,09,46,25.40
2010,07,09,09,47,25.40
2010,07,09,09,48,25.40
2010,07,09,09,49,25.50
2010,07,09,09,50,25.50
2010,07,09,09,51,25.60
2010,07,09,09,52,25.60
2010,07,09,09,53,25.60
2010,07,09,09,54,25.60
2010,07,09,09,55,25.60
2010,07,09,09,56,25.60
2010,07,09,09,57,25.50
2010,07,09,09,58,25.50
2010,07,09,09,59,25.40
2010,07,09,10,00,25.40
2010,07,09,10,01,25.40
2010,07,09,10,02,25.40
2010,07,09,10,03,25.40
2010,07,09,10,04,25.40
2010,07,09,10,05,25.50
2010,07,09,10,06,25.50
2010,07,09,10,07,25.60
2010,07,09,10,08,25.70
2010,07,09,10,09,25.70
2010,07,09,10,10,25.80
2010,07,09,10,11,25.80
2010,07,09,10,12,25.80
2010,07,09,10,13,25.80
2010,07,09,10,14,25.80
2010,07,09,10,15,25.70
2010,07,09,10,16,25.60
2010,07,09,10,17,25.50
2010,07,09,10,18,25.40
2010,07,09,10,19,25.40
2010,07,09,10,20,25.50
2010,07,09,10,21,25.50
2010,07,09,10,22,25.60
2010,07,09,10,23,25.70
2010,07,09,10,24,25.80
2010,07,09,10,25,25.80
2010,07,09,10,26,25.90
2010,07,09,10,27,26.00
2010,07,09,10,28,26.10
2010,07,09,10,29,26.10
2010,07,09,10,30,26.10
2010,07,09,10,31,26.20
2010,07,09,10,32,26.30
2010,07,09,10,33,26.30
2010,07,09,10,34,26.40
2010,07,09,10,35,26.40
2010,07,09,10,36,26.40
2010,07,09,10,37,26.30
2010,07,09,10,38,26.30
2010,07,09,10,39,26.20
2010,07,09,10,40,26.20
2010,07,09,10,41,26.20
2010,07,09,10,42,26.30
2010,07,09,10,43,26.30
2010,07,09,10,44,26.30
2010,07,09,10,45,26.30
2010,07,09,10,46,26.30
2010,07,09,10,47,26.30
2010,07,09,10,48,26.20
2010,07,09,10,49,26.30
2010,07,09,10,50,26.30
2010,07,09,10,51,26.30
2010,07,09,10,52,26.30
2010,07,09,10,53,26.30
2010,07,09,10,54,26.30
2010,07,09,10,55,26.30
2010,07,09,10,56,26.30
2010,07,09,10,57,26.30
2010,07,09,10,58,26.30
2010,07,09,10,59,26.30
2010,07,09,11,00,26.40
2010,07,09,11,01,26.40
2010,07,09,11,02,26.40
2010,07,09,11,03,26.40
2010,07,09,11,04,26.40
2010,07,09,11,05,26.30
2010,07,09,11,06,26.30
2010,07,09,11,07,26.20
2010,07,09,11,08,26.20
2010,07,09,11,09,26.10
2010,07,09,11,10,26.10
2010,07,09,11,11,26.10
2010,07,09,11,12,26.10
2010,07,09,11,13,26.10
2010,07,09,11,14,26.20
2010,07,09,11,15,26.20
2010,07,09,11,16,26.20
2010,07,09,11,17,26.20
2010,07,09,11,18,26.20
2010,07,09,11,19,26.20
2010,07,09,11,20,26.20
2010,07,09,11,21,26.30
2010,07,09,11,22,26.30
2010,07,09,11,23,26.30
2010,07,09,11,24,26.40
2010,07,09,11,25,26.40
2010,07,09,11,26,26.50
2010,07,09,11,27,26.50
2010,07,09,11,28,26.60
2010,07,09,11,29,26.60
2010,07,09,11,30,26.60
2010,07,09,11,31,26.70
2010,07,09,11,32,26.80
2010,07,09,11,33,26.80
2010,07,09,11,34,27.00
2010,07,09,11,35,27.00
2010,07,09,11,36,27.10
2010,07,09,11,37,27.10
2010,07,09,11,38,27.10
2010,07,09,11,39,27.10
2010,07,09,11,40,27.10
2010,07,09,11,41,27.00
2010,07,09,11,42,26.90
2010,07,09,11,43,26.90
2010,07,09,11,44,26.80
2010,07,09,11,45,26.80
2010,07,09,11,46,26.80
2010,07,09,11,47,26.90
2010,07,09,11,48,27.00
2010,07,09,11,49,27.10
2010,07,09,11,50,27.10
2010,07,09,11,51,27.10
2010,07,09,11,52,27.10
2010,07,09,11,53,27.10
2010,07,09,11,54,27.10
2010,07,09,11,55,27.10
2010,07,09,11,56,27.00
2010,07,09,11,57,27.10
2010,07,09,11,58,27.10
2010,07,09,11,59,27.00
2010,07,09,12,00,27.00
2010,07,09,12,01,26.90
2010,07,09,12,02,26.80
2010,07,09,12,03,26.70
2010,07,09,12,04,26.70
2010,07,09,12,05,26.60
2010,07,09,12,06,26.60
2010,07,09,12,07,26.50
2010,07,09,12,08,26.40
2010,07,09,12,09,26.40
2010,07,09,12,10,26.40
2010,07,09,12,11,26.50
2010,07,09,12,12,26.50
2010,07,09,12,13,26.60
2010,07,09,12,14,26.70
2010,07,09,12,15,26.90
2010,07,09,12,16,27.00
2010,07,09,12,17,27.00
2010,07,09,12,18,27.10
2010,07,09,12,19,27.20
2010,07,09,12,20,27.20
2010,07,09,12,21,27.30
2010,07,09,12,22,27.30
2010,07,09,12,23,27.40
2010,07,09,12,24,27.40
2010,07,09,12,25,27.30
2010,07,09,12,26,27.20
2010,07,09,12,27,27.30
2010,07,09,12,28,27.30
2010,07,09,12,29,27.30
2010,07,09,12,30,27.30
2010,07,09,12,31,27.40
2010,07,09,12,32,27.30
2010,07,09,12,33,27.30
2010,07,09,12,34,27.20
2010,07,09,12,35,27.20
2010,07,09,12,36,27.30
2010,07,09,12,37,27.20
2010,07,09,12,38,27.10
2010,07,09,12,39,27.10
2010,07,09,12,40,27.00
2010,07,09,12,41,26.90
2010,07,09,12,42,26.90
2010,07,09,12,43,27.00
2010,07,09,12,44,27.10
2010,07,09,12,45,27.20
2010,07,09,12,46,27.30
2010,07,09,12,47,27.50
2010,07,09,12,48,27.60
2010,07,09,12,49,27.70
2010,07,09,12,50,27.80
2010,07,09,12,51,27.90
2010,07,09,12,52,28.00
2010,07,09,12,53,28.00
2010,07,09,12,54,28.10
2010,07,09,12,55,28.20
2010,07,09,12,56,28.20
2010,07,09,12,57,28.20
2010,07,09,12,58,28.30
2010,07,09,12,59,28.30
2010,07,09,13,00,28.30
2010,07,09,13,01,28.30
2010,07,09,13,02,28.30
2010,07,09,13,03,28.30
2010,07,09,13,04,28.30
2010,07,09,13,05,28.30
2010,07,09,13,06,28.20
2010,07,09,13,07,27.90
2010,07,09,13,08,27.80
2010,07,09,13,09,27.70
2010,07,09,13,10,27.70
2010,07,09,13,11,27.70
2010,07,09,13,12,27.80
2010,07,09,13,13,27.80
2010,07,09,13,14,27.80
2010,07,09,13,15,27.70
2010,07,09,13,16,27.80
2010,07,09,13,17,27.90
2010,07,09,13,18,28.00
2010,07,09,13,19,28.10
2010,07,09,13,20,28.10
2010,07,09,13,21,28.00
2010,07,09,13,22,28.00
2010,07,09,13,23,27.90
2010,07,09,13,24,27.80
2010,07,09,13,25,27.80
2010,07,09,13,26,27.80
2010,07,09,13,27,27.80
2010,07,09,13,28,27.80
2010,07,09,13,29,27.90
2010,07,09,13,30,28.00
2010,07,09,13,31,28.10
2010,07,09,13,32,28.10
2010,07,09,13,33,28.20
2010,07,09,13,34,28.20
2010,07,09,13,35,28.20
2010,07,09,13,36,28.20
2010,07,09,13,37,28.20
2010,07,09,13,38,28.30
2010,07,09,13,39,28.40
2010,07,09,13,40,28.40
2010,07,09,13,41,28.50
2010,07,09,13,42,28.50
2010,07,09,13,43,28.60
2010,07,09,13,44,28.70
2010,07,09,13,45,28.80
2010,07,09,13,46,28.90
2010,07,09,13,47,29.00
2010,07,09,13,48,29.10
2010,07,09,13,49,29.30
2010,07,09,13,50,29.50
2010,07,09,13,51,29.70
2010,07,09,13,52,29.90
2010,07,09,13,53,30.00
2010,07,09,13,54,29.90
2010,07,09,13,55,29.80
2010,07,09,13,56,29.50
2010,07,09,13,57,29.40
2010,07,09,13,58,29.30
2010,07,09,13,59,29.20
2010,07,09,14,00,29.20
2010,07,09,14,01,29.10
2010,07,09,14,02,29.10
2010,07,09,14,03,29.00
2010,07,09,14,04,28.80
2010,07,09,14,05,28.80
2010,07,09,14,06,28.70
2010,07,09,14,07,28.60
2010,07,09,14,08,28.40
2010,07,09,14,09,28.30
2010,07,09,14,10,28.10
2010,07,09,14,11,28.10
2010,07,09,14,12,28.10
2010,07,09,14,13,28.10
2010,07,09,14,14,28.10
2010,07,09,14,15,28.20
2010,07,09,14,16,28.20
2010,07,09,14,17,28.20
2010,07,09,14,18,28.20
2010,07,09,14,19,28.20
2010,07,09,14,20,28.30
2010,07,09,14,21,28.30
2010,07,09,14,22,28.30
2010,07,09,14,23,28.30
2010,07,09,14,24,28.30
2010,07,09,14,25,28.30
2010,07,09,14,26,28.30
2010,07,09,14,27,28.30
2010,07,09,14,28,28.30
2010,07,09,14,29,28.30
2010,07,09,14,30,28.30
2010,07,09,14,31,28.20
2010,07,09,14,32,28.30
2010,07,09,14,33,28.20
2010,07,09,14,34,28.20
2010,07,09,14,35,28.20
2010,07,09,14,36,28.20
2010,07,09,14,37,28.20
2010,07,09,14,38,28.10
2010,07,09,14,39,28.00
2010,07,09,14,40,27.90
2010,07,09,14,41,27.80
2010,07,09,14,42,27.80
2010,07,09,14,43,27.80
2010,07,09,14,44,27.80
2010,07,09,14,45,27.70
2010,07,09,14,46,27.70
2010,07,09,14,47,27.70
2010,07,09,14,48,27.70
2010,07,09,14,49,27.70
2010,07,09,14,50,27.70
2010,07,09,14,51,27.70
2010,07,09,14,52,27.80
2010,07,09,14,53,27.70
2010,07,09,14,54,27.60
2010,07,09,14,55,27.60
2010,07,09,14,56,27.50
2010,07,09,14,57,27.50
2010,07,09,14,58,27.40
2010,07,09,14,59,27.50
2010,07,09,15,00,27.40
2010,07,09,15,01,27.40
2010,07,09,15,02,27.50
2010,07,09,15,03,27.40
2010,07,09,15,04,27.40
2010,07,09,15,05,27.40
2010,07,09,15,06,27.40
2010,07,09,15,07,27.40
2010,07,09,15,08,27.40
2010,07,09,15,09,27.40
2010,07,09,15,10,27.30
2010,07,09,15,11,27.30
2010,07,09,15,12,27.30
2010,07,09,15,13,27.30
2010,07,09,15,14,27.30
2010,07,09,15,15,27.40
2010,07,09,15,16,27.40
2010,07,09,15,17,27.40
2010,07,09,15,18,27.40
2010,07,09,15,19,27.40
2010,07,09,15,20,27.40
2010,07,09,15,21,27.30
2010,07,09,15,22,27.30
2010,07,09,15,23,27.20
2010,07,09,15,24,27.20
2010,07,09,15,25,27.20
2010,07,09,15,26,27.20
2010,07,09,15,27,27.20
2010,07,09,15,28,27.20
2010,07,09,15,29,27.20
2010,07,09,15,30,27.30
2010,07,09,15,31,27.20
2010,07,09,15,32,27.20
2010,07,09,15,33,27.20
2010,07,09,15,34,27.10
2010,07,09,15,35,27.10
2010,07,09,15,36,27.10
2010,07,09,15,37,27.10
2010,07,09,15,38,27.10
2010,07,09,15,39,27.10
2010,07,09,15,40,27.10
2010,07,09,15,41,27.10
2010,07,09,15,42,27.20
2010,07,09,15,43,27.20
2010,07,09,15,44,27.30
2010,07,09,15,45,27.30
2010,07,09,15,46,27.30
2010,07,09,15,47,27.20
2010,07,09,15,48,27.20
2010,07,09,15,49,27.20
2010,07,09,15,50,27.10
2010,07,09,15,51,27.10
2010,07,09,15,52,27.10
2010,07,09,15,53,27.10
2010,07,09,15,54,27.10
2010,07,09,15,55,27.00
2010,07,09,15,56,27.00
2010,07,09,15,57,27.00
2010,07,09,15,58,27.00
2010,07,09,15,59,27.00
2010,07,09,16,00,26.90
2010,07,09,16,01,26.90
2010,07,09,16,02,26.80
2010,07,09,16,03,26.80
2010,07,09,16,04,26.80
2010,07,09,16,05,26.80
2010,07,09,16,06,26.80
2010,07,09,16,07,26.70
2010,07,09,16,08,26.70
2010,07,09,16,09,26.70
2010,07,09,16,10,26.70
2010,07,09,16,11,26.70
2010,07,09,16,12,26.70
2010,07,09,16,13,26.70
2010,07,09,16,14,26.70
2010,07,09,16,15,26.70
2010,07,09,16,16,26.70
2010,07,09,16,17,26.70
2010,07,09,16,18,26.70
2010,07,09,16,19,26.70
2010,07,09,16,20,26.70
2010,07,09,16,21,26.70
2010,07,09,16,22,26.70
2010,07,09,16,23,26.70
2010,07,09,16,24,26.70
2010,07,09,16,25,26.70
2010,07,09,16,26,26.60
2010,07,09,16,27,26.60
2010,07,09,16,28,26.60
2010,07,09,16,29,26.60
2010,07,09,16,30,26.60
2010,07,09,16,31,26.50
2010,07,09,16,32,26.50
2010,07,09,16,33,26.50
2010,07,09,16,34,26.40
2010,07,09,16,35,26.40
2010,07,09,16,36,26.30
2010,07,09,16,37,26.30
2010,07,09,16,38,26.20
2010,07,09,16,39,26.20
2010,07,09,16,40,26.20
2010,07,09,16,41,26.20
2010,07,09,16,42,26.20
2010,07,09,16,43,26.10
2010,07,09,16,44,26.10
2010,07,09,16,45,26.10
2010,07,09,16,46,26.10
2010,07,09,16,47,26.10
2010,07,09,16,48,26.10
2010,07,09,16,49,26.10
2010,07,09,16,50,26.10
2010,07,09,16,51,26.10
2010,07,09,16,52,26.00
2010,07,09,16,53,26.00
2010,07,09,16,54,25.90
2010,07,09,16,55,25.90
2010,07,09,16,56,25.90
2010,07,09,16,57,25.90
2010,07,09,16,58,25.90
2010,07,09,16,59,25.90
2010,07,09,17,00,25.90
2010,07,09,17,01,25.90
2010,07,09,17,02,25.90
2010,07,09,17,03,25.90
2010,07,09,17,04,25.80
2010,07,09,17,05,25.80
2010,07,09,17,06,25.70
2010,07,09,17,07,25.70
2010,07,09,17,08,25.60
2010,07,09,17,09,25.60
2010,07,09,17,10,25.60
2010,07,09,17,11,25.60
2010,07,09,17,12,25.60
2010,07,09,17,13,25.60
2010,07,09,17,14,25.60
2010,07,09,17,15,25.50
2010,07,09,17,16,25.50
2010,07,09,17,17,25.40
2010,07,09,17,18,25.40
2010,07,09,17,19,25.30
2010,07,09,17,20,25.30
2010,07,09,17,21,25.20
2010,07,09,17,22,25.20
2010,07,09,17,23,25.20
2010,07,09,17,24,25.20
2010,07,09,17,25,25.20
2010,07,09,17,26,25.10
2010,07,09,17,27,25.10
2010,07,09,17,28,25.10
2010,07,09,17,29,25.10
2010,07,09,17,30,25.10
2010,07,09,17,31,25.10
2010,07,09,17,32,25.10
2010,07,09,17,33,25.00
2010,07,09,17,34,25.00
2010,07,09,17,35,25.00
2010,07,09,17,36,25.00
2010,07,09,17,37,24.90
2010,07,09,17,38,24.90
2010,07,09,17,39,24.80
2010,07,09,17,40,24.80
2010,07,09,17,41,24.80
2010,07,09,17,42,24.80
2010,07,09,17,43,24.80
2010,07,09,17,44,24.80
2010,07,09,17,45,24.80
2010,07,09,17,46,24.80
2010,07,09,17,47,24.80
2010,07,09,17,48,24.80
2010,07,09,17,49,24.80
2010,07,09,17,50,24.70
2010,07,09,17,51,24.70
2010,07,09,17,52,24.70
2010,07,09,17,53,24.70
2010,07,09,17,54,24.70
2010,07,09,17,55,24.70
2010,07,09,17,56,24.70
2010,07,09,17,57,24.70
2010,07,09,17,58,24.70
2010,07,09,17,59,24.70
2010,07,09,18,00,24.70
2010,07,09,18,01,24.70
2010,07,09,18,02,24.70
2010,07,09,18,03,24.70
2010,07,09,18,04,24.70
2010,07,09,18,05,24.70
2010,07,09,18,06,24.70
2010,07,09,18,07,24.70
2010,07,09,18,08,24.70
2010,07,09,18,09,24.70
2010,07,09,18,10,24.70
2010,07,09,18,11,24.70
2010,07,09,18,12,24.80
2010,07,09,18,13,24.80
2010,07,09,18,14,24.80
2010,07,09,18,15,24.90
2010,07,09,18,16,24.90
2010,07,09,18,17,24.90
2010,07,09,18,18,24.90
2010,07,09,18,19,25.00
2010,07,09,18,20,25.00
2010,07,09,18,21,25.00
2010,07,09,18,22,25.00
2010,07,09,18,23,25.10
2010,07,09,18,24,25.10
2010,07,09,18,25,25.10
2010,07,09,18,26,25.10
2010,07,09,18,27,25.20
2010,07,09,18,28,25.20
2010,07,09,18,29,25.20
2010,07,09,18,30,25.20
2010,07,09,18,31,25.10
2010,07,09,18,32,25.10
2010,07,09,18,33,25.10
2010,07,09,18,34,25.10
2010,07,09,18,35,25.00
2010,07,09,18,36,25.00
2010,07,09,18,37,25.00
2010,07,09,18,38,25.00
2010,07,09,18,39,25.00
2010,07,09,18,40,25.00
2010,07,09,18,41,24.90
2010,07,09,18,42,24.90
2010,07,09,18,43,24.90
2010,07,09,18,44,24.90
2010,07,09,18,45,24.90
2010,07,09,18,46,24.90
2010,07,09,18,47,24.90
2010,07,09,18,48,24.90
2010,07,09,18,49,24.90
2010,07,09,18,50,24.90
2010,07,09,18,51,24.90
2010,07,09,18,52,24.90
2010,07,09,18,53,24.90
2010,07,09,18,54,24.90
2010,07,09,18,55,24.90
2010,07,09,18,56,24.90
2010,07,09,18,57,24.90
2010,07,09,18,58,24.90
2010,07,09,18,59,24.90
2010,07,09,19,00,24.90
2010,07,09,19,01,24.90
2010,07,09,19,02,24.90
2010,07,09,19,03,24.80
2010,07,09,19,04,24.80
2010,07,09,19,05,24.80
2010,07,09,19,06,24.80
2010,07,09,19,07,24.80
2010,07,09,19,08,24.70
2010,07,09,19,09,24.70
2010,07,09,19,10,24.70
2010,07,09,19,11,24.70
2010,07,09,19,12,24.70
2010,07,09,19,13,24.60
2010,07,09,19,14,24.60
2010,07,09,19,15,24.60
2010,07,09,19,16,24.60
2010,07,09,19,17,24.60
2010,07,09,19,18,24.60
2010,07,09,19,19,24.60
2010,07,09,19,20,24.60
2010,07,09,19,21,24.60
2010,07,09,19,22,24.60
2010,07,09,19,23,24.50
2010,07,09,19,24,24.40
2010,07,09,19,25,24.40
2010,07,09,19,26,24.40
2010,07,09,19,27,24.40
2010,07,09,19,28,24.40
2010,07,09,19,29,24.30
2010,07,09,19,30,24.30
2010,07,09,19,31,24.30
2010,07,09,19,32,24.30
2010,07,09,19,33,24.30
2010,07,09,19,34,24.20
2010,07,09,19,35,24.20
2010,07,09,19,36,24.20
2010,07,09,19,37,24.20
2010,07,09,19,38,24.20
2010,07,09,19,39,24.20
2010,07,09,19,40,24.20
2010,07,09,19,41,24.20
2010,07,09,19,42,24.20
2010,07,09,19,43,24.10
2010,07,09,19,44,24.10
2010,07,09,19,45,24.10
2010,07,09,19,46,24.10
2010,07,09,19,47,24.10
2010,07,09,19,48,24.10
2010,07,09,19,49,24.10
2010,07,09,19,50,24.10
2010,07,09,19,51,24.10
2010,07,09,19,52,24.10
2010,07,09,19,53,24.10
2010,07,09,19,54,24.10
2010,07,09,19,55,24.10
2010,07,09,19,56,24.10
2010,07,09,19,57,24.10
2010,07,09,19,58,24.10
2010,07,09,19,59,24.10
2010,07,09,20,00,24.10
2010,07,09,20,01,24.10
2010,07,09,20,02,24.00
2010,07,09,20,03,24.00
2010,07,09,20,04,24.00
2010,07,09,20,05,24.00
2010,07,09,20,06,23.90
2010,07,09,20,07,23.90
2010,07,09,20,08,23.90
2010,07,09,20,09,23.90
2010,07,09,20,10,23.90
2010,07,09,20,11,23.90
2010,07,09,20,12,23.90
2010,07,09,20,13,23.90
2010,07,09,20,14,23.90
2010,07,09,20,15,23.90
2010,07,09,20,16,23.90
2010,07,09,20,17,23.90
2010,07,09,20,18,23.80
2010,07,09,20,19,23.80
2010,07,09,20,20,23.80
2010,07,09,20,21,23.80
2010,07,09,20,22,23.80
2010,07,09,20,23,23.80
2010,07,09,20,24,23.80
2010,07,09,20,25,23.80
2010,07,09,20,26,23.80
2010,07,09,20,27,23.80
2010,07,09,20,28,23.70
2010,07,09,20,29,23.70
2010,07,09,20,30,23.70
2010,07,09,20,31,23.70
2010,07,09,20,32,23.70
2010,07,09,20,33,23.70
2010,07,09,20,34,23.70
2010,07,09,20,35,23.70
2010,07,09,20,36,23.70
2010,07,09,20,37,23.70
2010,07,09,20,38,23.70
2010,07,09,20,39,23.70
2010,07,09,20,40,23.70
2010,07,09,20,41,23.70
2010,07,09,20,42,23.70
2010,07,09,20,43,23.70
2010,07,09,20,44,23.80
2010,07,09,20,45,23.80
2010,07,09,20,46,23.80
2010,07,09,20,47,23.80
2010,07,09,20,48,23.80
2010,07,09,20,49,23.80
2010,07,09,20,50,23.80
2010,07,09,20,51,23.80
2010,07,09,20,52,23.80
2010,07,09,20,53,23.80
2010,07,09,20,54,23.80
2010,07,09,20,55,23.80
2010,07,09,20,56,23.80
2010,07,09,20,57,23.80
2010,07,09,20,58,23.80
2010,07,09,20,59,23.70
2010,07,09,21,00,23.70
2010,07,09,21,01,23.70
2010,07,09,21,02,23.70
2010,07,09,21,03,23.70
2010,07,09,21,04,23.70
2010,07,09,21,05,23.70
2010,07,09,21,06,23.70
2010,07,09,21,07,23.70
2010,07,09,21,08,23.60
2010,07,09,21,09,23.60
2010,07,09,21,10,23.60
2010,07,09,21,11,23.60
2010,07,09,21,12,23.60
2010,07,09,21,13,23.60
2010,07,09,21,14,23.60
2010,07,09,21,15,23.60
2010,07,09,21,16,23.60
2010,07,09,21,17,23.60
2010,07,09,21,18,23.50
2010,07,09,21,19,23.50
2010,07,09,21,20,23.50
2010,07,09,21,21,23.50
2010,07,09,21,22,23.50
2010,07,09,21,23,23.40
2010,07,09,21,24,23.40
2010,07,09,21,25,23.40
2010,07,09,21,26,23.40
2010,07,09,21,27,23.40
2010,07,09,21,28,23.40
2010,07,09,21,29,23.40
2010,07,09,21,30,23.30
2010,07,09,21,31,23.30
2010,07,09,21,32,23.30
2010,07,09,21,33,23.30
2010,07,09,21,34,23.30
2010,07,09,21,35,23.30
2010,07,09,21,36,23.20
2010,07,09,21,37,23.20
2010,07,09,21,38,23.20
2010,07,09,21,39,23.20
2010,07,09,21,40,23.10
2010,07,09,21,41,23.10
2010,07,09,21,42,23.10
2010,07,09,21,43,23.10
2010,07,09,21,44,23.10
2010,07,09,21,45,23.10
2010,07,09,21,46,23.00
2010,07,09,21,47,23.00
2010,07,09,21,48,23.00
2010,07,09,21,49,23.00
2010,07,09,21,50,22.90
2010,07,09,21,51,22.90
2010,07,09,21,52,22.90
2010,07,09,21,53,22.90
2010,07,09,21,54,22.90
2010,07,09,21,55,22.90
2010,07,09,21,56,22.90
2010,07,09,21,57,22.80
2010,07,09,21,58,22.80
2010,07,09,21,59,22.80
2010,07,09,22,00,22.80
2010,07,09,22,01,22.80
2010,07,09,22,02,22.80
2010,07,09,22,03,22.80
2010,07,09,22,04,22.80
2010,07,09,22,05,22.80
2010,07,09,22,06,22.80
2010,07,09,22,07,22.70
2010,07,09,22,08,22.70
2010,07,09,22,09,22.70
2010,07,09,22,10,22.70
2010,07,09,22,11,22.70
2010,07,09,22,12,22.70
2010,07,09,22,13,22.70
2010,07,09,22,14,22.70
2010,07,09,22,15,22.70
2010,07,09,22,16,22.70
2010,07,09,22,17,22.60
2010,07,09,22,18,22.60
2010,07,09,22,19,22.60
2010,07,09,22,20,22.60
2010,07,09,22,21,22.60
2010,07,09,22,22,22.50
2010,07,09,22,23,22.50
2010,07,09,22,24,22.50
2010,07,09,22,25,22.40
2010,07,09,22,26,22.40
2010,07,09,22,27,22.40
2010,07,09,22,28,22.30
2010,07,09,22,29,22.30
2010,07,09,22,30,22.30
2010,07,09,22,31,22.30
2010,07,09,22,32,22.20
2010,07,09,22,33,22.20
2010,07,09,22,34,22.20
2010,07,09,22,35,22.20
2010,07,09,22,36,22.10
2010,07,09,22,37,22.10
2010,07,09,22,38,22.10
2010,07,09,22,39,22.10
2010,07,09,22,40,22.00
2010,07,09,22,41,22.00
2010,07,09,22,42,21.90
2010,07,09,22,43,21.90
2010,07,09,22,44,21.90
2010,07,09,22,45,21.90
2010,07,09,22,46,21.80
2010,07,09,22,47,21.80
2010,07,09,22,48,21.80
2010,07,09,22,49,21.70
2010,07,09,22,50,21.70
2010,07,09,22,51,21.70
2010,07,09,22,52,21.60
2010,07,09,22,53,21.60
2010,07,09,22,54,21.50
2010,07,09,22,55,21.50
2010,07,09,22,56,21.50
2010,07,09,22,57,21.40
2010,07,09,22,58,21.40
2010,07,09,22,59,21.30
2010,07,09,23,00,21.30
2010,07,09,23,01,21.20
2010,07,09,23,02,21.20
2010,07,09,23,03,21.10
2010,07,09,23,04,21.10
2010,07,09,23,05,21.10
2010,07,09,23,06,21.00
2010,07,09,23,07,20.90
2010,07,09,23,08,20.90
2010,07,09,23,09,20.90
2010,07,09,23,10,20.80
2010,07,09,23,11,20.80
2010,07,09,23,12,20.80
2010,07,09,23,13,20.70
2010,07,09,23,14,20.70
2010,07,09,23,15,20.60
2010,07,09,23,16,20.60
2010,07,09,23,17,20.50
2010,07,09,23,18,20.50
2010,07,09,23,19,20.50
2010,07,09,23,20,20.40
2010,07,09,23,21,20.40
2010,07,09,23,22,20.30
2010,07,09,23,23,20.30
2010,07,09,23,24,20.20
2010,07,09,23,25,20.20
2010,07,09,23,26,20.10
2010,07,09,23,27,20.10
2010,07,09,23,28,20.00
2010,07,09,23,29,19.90
2010,07,09,23,30,19.90
2010,07,09,23,31,19.90
2010,07,09,23,32,19.80
2010,07,09,23,33,19.80
2010,07,09,23,34,19.70
2010,07,09,23,35,19.70
2010,07,09,23,36,19.70
2010,07,09,23,37,19.60
2010,07,09,23,38,19.60
2010,07,09,23,39,19.60
2010,07,09,23,40,19.60
2010,07,09,23,41,19.60
2010,07,09,23,42,19.60
2010,07,09,23,43,19.60
2010,07,09,23,44,19.60
2010,07,09,23,45,19.50
2010,07,09,23,46,19.50
2010,07,09,23,47,19.50
2010,07,09,23,48,19.50
2010,07,09,23,49,19.50
2010,07,09,23,50,19.50
2010,07,09,23,51,19.40
2010,07,09,23,52,19.40
2010,07,09,23,53,19.40
2010,07,09,23,54,19.40
2010,07,09,23,55,19.40
2010,07,09,23,56,19.40
2010,07,09,23,57,19.40
2010,07,09,23,58,19.40
2010,07,09,23,59,19.40
